Regional Weather Roundup
Issued by NWS

Home | Current Version | Previous Version | Text Only | Print | Product List | Glossary Off
Versions: 1 2 3 4 5 6 7 8 9 10 11 12 13 14 15 16 17 18 19 20 21 22 23 24 25 26 27 28 29 30 31 32 33 34 35 36 37 38 39 40 41 42 43 44 45 46 47 48 49 50

000
ASUS43 KTOP 290208
RWRKS

WEATHER ROUNDUP FOR KANSAS
NATIONAL WEATHER SERVICE GOODLAND KS
900 PM CDT THU APR 28 2016

NOTE:  "FAIR" INDICATES FEW OR NO CLOUDS BELOW 12,000 FEET WITH NO
SIGNIFICANT WEATHER AND/OR OBSTRUCTIONS TO VISIBILITY.

KSZ001>006-013>018-027>032-041>047-290300-
NORTHWEST KANSAS

CITY           SKY/WX    TMP DP  RH WIND       PRES   REMARKS
GOODLAND       CLOUDY    46  37  71 NE10      30.03R
HAYS           CLOUDY    55  39  54 NE8       30.05R
HILL CITY      CLOUDY    51  42  71 NE7       30.06R
RUSSELL        CLOUDY    52  44  74 NE9       30.03R
$$

KSZ061>065-074>080-084>089-290300-
SOUTHWEST KANSAS

CITY           SKY/WX    TMP DP  RH WIND       PRES   REMARKS
DODGE CITY     CLOUDY    54  38  54 NE13      29.99R
ELKHART          N/A     56  37  49 E17         N/A
GARDEN CITY    CLEAR     53  37  54 NE13      29.96S
GREAT BEND     PTCLDY    54  43  66 N9        30.02R
LIBERAL        CLOUDY    57  37  47 E18G25    29.91F
PRATT          CLOUDY    57  40  53 E8        29.99R
$$

KSZ066>073-081>083-090>101-290300-
SOUTHEAST KANSAS

CITY           SKY/WX    TMP DP  RH WIND       PRES   REMARKS
CHANUTE        PTCLDY    61  49  64 NE6       29.97R
COFFEYVILLE    CLEAR     58  52  80 NE7       29.94S
HUTCHINSON     CLOUDY    59  46  62 NE5       30.00R
MEDICINE LODGE   N/A     59  48  67 E6        29.97R
NEWTON         CLOUDY    57  45  62 CALM      30.02R
PARSONS        PTCLDY    58  53  84 CALM      29.96S
WICHITA INTL   CLOUDY    62  48  60 NE12      29.98R
WICHITA JABRA  PTCLDY    57  49  74 N7        29.98R
WINFIELD       CLOUDY    63  48  58 NE7       29.97R
$$

KSZ007>012-019>026-033>040-048>060-102>105-290300-
NORTHEAST KANSAS

CITY           SKY/WX    TMP DP  RH WIND       PRES   REMARKS
CONCORDIA      CLOUDY    51  42  71 NE6       30.05R
EMPORIA        PTCLDY    57  48  72 NE9       30.00R
LAWRENCE       CLEAR     51  45  79 NE5       30.03R
MANHATTAN      PTCLDY    53  44  71 NE7       30.03R
MARYSVILLE     CLOUDY    50  45  81 N7        30.05R
OLATHE IND     CLEAR     51  46  83 N7        30.02R
OLATHE EXE     CLEAR     53  45  74 N7        30.02R
SALINA         CLEAR     56  45  66 NE8       30.03R
TOPEKA BILLARD PTCLDY    53  45  74 N5        30.03R
TOPEKA FORBES  CLEAR     54  46  74 N6        30.03R
$$




USA.gov is the U.S. government's official web portal to all federal, state and local government web resources and services.